Location: Faicchio
(41.2833°N, 14.4833°E)
Time: 06:10:18
(UTC+00:00)

SL-19 R/B - Pass Details

Date: 15 June 2025
Orbit: 873 x 1208 km, 100.5° (Epoch: 16 July)

Event Time Altitude Azimuth Distance (km) Brightness Sun altitude
Rises 00:37:22 0° 13° (NNE) 3,495 8.9 -21.8°
Reaches altitude 10° 00:39:46 10° 11° (NNE) 2,539 7.8 -21.6°
Maximum altitude 00:45:19 71° 289° (WNW) 927 4.3 -21.1°
Enters shadow 00:47:17 41° 218° (SW) 1,253 4.6 -21.0°
